19.04.2024;12:00;9
19.04.2024;11:00;11
19.04.2024;10:00;12
19.04.2024;09:00;14
19.04.2024;08:00;15
19.04.2024;07:00;14
19.04.2024;06:00;14
19.04.2024;05:00;10
19.04.2024;04:00;9
19.04.2024;03:00;7
19.04.2024;02:00;7
19.04.2024;01:00;8
18.04.2024;24:00;9
18.04.2024;23:00;14
18.04.2024;22:00;11
18.04.2024;21:00;10
18.04.2024;20:00;9
18.04.2024;19:00;7
18.04.2024;18:00;8
18.04.2024;17:00;7
18.04.2024;16:00;8
18.04.2024;15:00;7
18.04.2024;14:00;6
18.04.2024;13:00;9
18.04.2024;12:00;7
18.04.2024;11:00;8
18.04.2024;10:00;9
18.04.2024;09:00;11
18.04.2024;08:00;11
18.04.2024;07:00;11
18.04.2024;06:00;8
18.04.2024;05:00;7
18.04.2024;04:00;7
18.04.2024;03:00;8
18.04.2024;02:00;7
18.04.2024;01:00;9
17.04.2024;24:00;9
17.04.2024;23:00;9
17.04.2024;22:00;10
17.04.2024;21:00;14
17.04.2024;20:00;12
17.04.2024;19:00;11
17.04.2024;18:00;17
17.04.2024;17:00;9
17.04.2024;16:00;9
17.04.2024;15:00;6
17.04.2024;14:00;9
17.04.2024;13:00;13
17.04.2024;12:00;18
17.04.2024;11:00;13
17.04.2024;10:00;14
17.04.2024;09:00;11
17.04.2024;08:00;12
17.04.2024;07:00;10
17.04.2024;06:00;4
17.04.2024;05:00;2
17.04.2024;04:00;1
17.04.2024;03:00;1
17.04.2024;02:00;1
17.04.2024;01:00;1
16.04.2024;24:00;0
16.04.2024;23:00;3
16.04.2024;22:00;2
16.04.2024;21:00;4
16.04.2024;20:00;5
16.04.2024;19:00;8
16.04.2024;18:00;9
16.04.2024;17:00;9
16.04.2024;16:00;8
16.04.2024;15:00;9
16.04.2024;14:00;9
16.04.2024;13:00;8
16.04.2024;12:00;7
16.04.2024;11:00;6
16.04.2024;10:00;4
16.04.2024;09:00;5
16.04.2024;08:00;5
16.04.2024;07:00;5
16.04.2024;06:00;4
16.04.2024;05:00;4
16.04.2024;04:00;3
16.04.2024;03:00;1
16.04.2024;02:00;1
16.04.2024;01:00;0
15.04.2024;24:00;3
15.04.2024;23:00;7
15.04.2024;22:00;9
15.04.2024;21:00;14
15.04.2024;20:00;16
15.04.2024;19:00;14
15.04.2024;18:00;19
15.04.2024;17:00;16
15.04.2024;16:00;12
15.04.2024;15:00;8
15.04.2024;14:00;9
15.04.2024;13:00;13
15.04.2024;12:00;9
15.04.2024;11:00;11
15.04.2024;10:00;13
15.04.2024;09:00;14
15.04.2024;08:00;19
15.04.2024;07:00;20
15.04.2024;06:00;15
15.04.2024;05:00;18
15.04.2024;04:00;19
15.04.2024;03:00;18
15.04.2024;02:00;17
15.04.2024;01:00;20
14.04.2024;24:00;27
14.04.2024;23:00;26
14.04.2024;22:00;27
14.04.2024;21:00;17
14.04.2024;20:00;14
14.04.2024;19:00;13
14.04.2024;18:00;13
14.04.2024;17:00;12
14.04.2024;16:00;14
14.04.2024;15:00;14
14.04.2024;14:00;11
14.04.2024;13:00;10
14.04.2024;12:00;12
14.04.2024;11:00;17
14.04.2024;10:00;19
14.04.2024;09:00;21
14.04.2024;08:00;24
14.04.2024;07:00;24
14.04.2024;06:00;29
14.04.2024;05:00;29
14.04.2024;04:00;35
14.04.2024;03:00;49
14.04.2024;02:00;53
14.04.2024;01:00;55
